Location: Unspecified
(0.0000°N, 0.0000°E)
Time: 14:42:40
(UTC+00:00)

CZ-3C DEB - Pass Details

Date: 15 February 2026
Orbit: 521 x 35552 km, 20.3° (Epoch: 6 July)

Event Time Altitude Azimuth Distance (km) Brightness Sun altitude
Rises 23:25:54 0° 257° (WSW) 7,346 ? -72.5°
Reaches altitude 10° 23:29:15 10° 253° (WSW) 7,266 ? -73.1°
Maximum altitude 04:37:58 75° 125° (SE) 20,544 ? -23.4°
Drops below altitude 10° 06:09:56 10° 71° (ENE) 8,595 ? -1.0°
Sets 06:13:46 0° 70° (ENE) 8,579 ? -0.1°
